Location: Unspecified
(35.7250°N, 0.0000°E)
Time: 15:19:18
(UTC+00:00)

Tiros 1 - Pass Details

Date: 28 June 2019
Orbit: 630 x 664 km, 48.4° (Epoch: 21 August)

Event Time Altitude Azimuth Distance (km) Brightness Sun altitude
Rises 21:16:58 0° 257° (WSW) 2,966 10.9 -19.1°
Reaches altitude 10° 21:19:28 10° 266° (W) 2,052 10.2 -19.4°
Maximum altitude 21:23:51 37° 333° (NNW) 1,013 8.7 -20.0°
Drops below altitude 10° 21:28:12 10° 41° (NE) 2,037 9.8 -20.5°
Sets 21:30:41 0° 50° (NE) 2,942 10.6 -20.8°
